This is the latest recevied weather packets stored in our database for station/object F8KHU-13. If no packets are shown the sender has not sent any weather packets the latest 10 day(s).
| Time | Temp. | Humidity | Pressure | Rain* | Wind** | Luminosity | Snow |
|---|---|---|---|---|---|---|---|
| 1788326722 | 13.89° C | 31% | 1020.8 hPa | 0 mm | - | 0 W/m² | - |
| 1788325864 | 13.89° C | 32% | 1020.7 hPa | 0 mm | - | 0 W/m² | - |
| 1788325825 | 13.89° C | 31% | 1020.7 hPa | 0 mm | - | 0 W/m² | - |
| 1788324964 | 13.89° C | 31% | 1020.8 hPa | 0 mm | - | 0 W/m² | - |
| 1788324945 | 13.89° C | 31% | 1020.7 hPa | 0 mm | - | 0 W/m² | - |
| 1788324924 | 13.89° C | 31% | 1020.7 hPa | 0 mm | - | 0 W/m² | - |
| 1788299761 | 17.78° C | 28% | 1021.5 hPa | 0 mm | - | 0 W/m² | - |
| 1788299741 | 17.78° C | 28% | 1021.5 hPa | 0 mm | - | 0 W/m² | - |
| 1788298862 | 18.33° C | 28% | 1021.5 hPa | 0 mm | - | 0 W/m² | - |
| 1788298842 | 18.33° C | 28% | 1021.6 hPa | 0 mm | - | 0 W/m² | - |
| 1788298821 | 18.33° C | 28% | 1021.5 hPa | 0 mm | - | 0 W/m² | - |
| 1788297962 | 18.33° C | 28% | 1021.7 hPa | 0 mm | - | 0 W/m² | - |
| 1788297922 | 18.33° C | 28% | 1021.6 hPa | 0 mm | - | 0 W/m² | - |
| 1788297062 | 18.89° C | 28% | 1021.7 hPa | 0 mm | - | 0 W/m² | - |
| 1788297042 | 18.89° C | 28% | 1021.7 hPa | 0 mm | - | 0 W/m² | - |
| 1788297022 | 18.89° C | 28% | 1021.7 hPa | 0 mm | - | 0 W/m² | - |
| 1788296142 | 18.89° C | 28% | 1021.6 hPa | 0 mm | - | 0 W/m² | - |
| 1788295242 | 19.44° C | 28% | 1021.8 hPa | 0 mm | - | 0 W/m² | - |
| 1788295222 | 19.44° C | 28% | 1021.8 hPa | 0 mm | - | 0 W/m² | - |
| 1788294342 | 20° C | 28% | 1021.6 hPa | 0 mm | - | 0 W/m² | - |
| 1788293462 | 20° C | 28% | 1021.5 hPa | 0 mm | - | 0 W/m² | - |
| 1788293442 | 20° C | 27% | 1021.6 hPa | 0 mm | - | 0 W/m² | - |
| 1788293422 | 20° C | 27% | 1021.5 hPa | 0 mm | - | 0 W/m² | - |
| 1788292543 | 20.56° C | 27% | 1021.6 hPa | 0 mm | - | 0 W/m² | - |
| 1788292522 | 20.56° C | 27% | 1021.5 hPa | 0 mm | - | 0 W/m² | - |
* Rain latest hour (hover to see other rain measurements)
** Current wind speed in m/s (hover to see current wind gust speed)